Location: Country Club Park
(34.0503°N, 118.3212°W)
Time: 15:39:22
(UTC+00:00)

BlueWalker 3 - Visible Passes

Search period start: 01 December 2023 00:00
Search period end: 11 December 2023 00:00
Orbit: 489 x 504 km, 53.2° (Epoch: 01 December)

Date Brightness Start Highest point End Pass type
(mag) Time Alt. Az. Time Alt. Az. Time Alt. Az.
01 Dec 3.8 13:52:22 10° NNW 13:55:31 24° NE 13:58:39 10° E visible
02 Dec 3.8 13:29:58 11° NNW 13:32:54 23° NE 13:36:00 10° E visible
03 Dec 3.8 13:08:27 17° N 13:10:15 23° NE 13:13:21 10° E visible
04 Dec 3.7 12:47:00 22° NNE 12:47:36 23° NE 12:50:40 10° E visible
05 Dec 4.1 12:25:36 21° NE 12:25:36 21° NE 12:27:59 10° E visible
05 Dec 2.7 14:00:11 12° WNW 14:03:22 37° SW 14:06:52 10° SSE visible
06 Dec 4.8 12:04:15 15° ENE 12:04:15 15° ENE 12:05:17 10° E visible
06 Dec 2.6 13:38:50 23° WNW 13:40:40 38° SW 13:44:13 10° SSE visible
07 Dec 2.5 13:17:33 37° WSW 13:17:58 39° SW 13:21:31 10° SSE visible
08 Dec 3.1 12:56:19 31° SSW 12:56:19 31° SSW 12:58:49 10° SSE visible
09 Dec 4.3 12:35:08 16° SSE 12:35:08 16° SSE 12:36:05 10° SSE visible
